DIAMANT DEB, 2685

Orbit data source: Space-Track

DIAMANT DEB, 2685 is space debris in LEO originally from a launch on Wed, 15 Feb 1967 UTC launched from the Hamma Guira Space Track Range (HGSTR). Debris objects in space refer to the collection of defunct objects orbiting the Earth. Examples of debris include non-operational satellites, rocket bodies, and fragments generated from explosions, collisions, or faulty payload assembly.

Loading next visibility...
Identifier
2685, 1967-014F
Orbit
LEO
Country
Flag of FRFR
Related business
Manufacturer
Unknown
Mission
Spacecraft
Bus & Motor
Unknown
Mass
Unknown
Launch date (UTC)
1967-02-15 (59 years ago)
Launch vehicle
Unknown
Launch site
Hamma Guira Space Track Range (HGSTR)
Object type
Payload
Rocket body
Debris
Shape & HBR
Unknown shape, 0.1 m
Radar Cross Section
Small (<0.1 m²)

Expand to show TLE details & history
Last TLE update: 2 days ago

TLE from 2 days ago
0 DIAMANT DEB
1 02685U 67014F   26072.86197533  .00008636  00000-0  14865-2 0  9997
2 02685  38.9277 247.0492 0343784 131.4553 231.6265 14.36369902953766
Epoch: 2026-03-13T20:41Z
TLE epoch observation values (Epoch: 2026-03-13T20:41:14.668Z)
Latitude
0.00004°
Longitude
125.24671°
Altitude
927.438 km
Speed
7.308 km/s
True Right ascension
16h 28m 11s
True Declination
0° 00' 00"
Sunlit
Object was in daylight at epoch
Visualization orbit readout
Latitude
Unknown
Longitude
Unknown
Altitude
Unknown
Speed
Unknown
Apparent Right ascension
Unknown
Apparent Declination
Unknown
Sunlit
N/A
Visualization observer readout
Local Sidereal Time
02:07:32
Azimuth
Unknown
Elevation
Unknown
Doppler factor
Unknown
Orbital elements
Apogee altitude
1,018.885 km
Perigee altitude
527.193 km
Semi-major axis
7,151.176 km
Eccentricity
0.03438
Inclination
38.9277°
RAAN
247.0492°
Arg. of periapsis
131.4553°
True anomaly
228.61973°
Mean anomaly
231.6265°
Eccentric anomaly
230.11505°
Mean motion
3.58903 °/min
Orbital period
100.31 mins
BSTAR
0.0014865
Loading maneuver chart data...
Computing Atmospheric mass density...
Loading historical data...
Loading historical data...
Loading historical data...
Loading historical data...
Loading historical data...
Loading historical data...
Loading historical data...

Documentation

Showing up to 5 results
|